www.pogodaiklimat.ru

Погода и климат >> Архив погоды >> Аргентина >> Маркос Хуарес


ПОГОДА в Маркос Хуарес

  • Прогноз погоды в Маркос Хуарес
  • Монитор погоды в Маркос Хуарес

АРХИВ ПОГОДЫ в Маркос Хуарес

Время (UTC), дата Ветер
(напр.,м/с)
 
Видим.   Явления Облачность Т
(С)
Тd
(С)
f
(%)
Тe
(С)
Тes
(С)
Комфортность P
(гПа)
Po
(гПа)
Тmin
(С)
Tmax
(С)
R
(мм)
R24
(мм)
S
(см)
06 15.08 СВ 4 20 км 4/0
[Cs]
+3.2 +0.6 83 -2 -2 1022.6 1008.6
09 15.08 СВ 4 20 км 4/0
[Cs]
-0.2 -1.4 92 -6 -6 1021.5 1007.4
12 15.08 СВ 5 15 км дымка 3/0
[Cs]
+3.5 +2.0 90 -2 -1 1022.4 1008.2 -0.4 +5.2
15 15.08 С 6 20 км 6/0
[Ac As Cs]
+13.6 +3.2 49 +12 +14 1021.2 1007.3
18 15.08 С 5 20 км 8/0
[Ac As Cs]
+16.7 +3.1 40 +16 +19 1017.3 1003.4
21 15.08 СВ 6 20 км 8/0
[Ac As Cs]
+14.9 +4.7 50 +13 +14 1017.8 1003.8
00 16.08 В 4 20 км 8/0
[Cs]
+6.2 +3.9 85 +3 +3 1018.0 1004.0 +3.5 +17.1
03 16.08 В 3 20 км 8/0
[Cs]
+5.0 +3.3 89 +1 +1 1017.6 1003.7
06 16.08 В 3 20 км 8/0
[Cs]
+5.4 +4.9 97 +2 +2 1015.9 1002.1
09 16.08 СВ 3 3000 м дымка 8/0
[Cs]
+5.4 +4.9 97 +2 +2 1014.3 1000.5
12 16.08 СВ 3 10 км дымка 6/0
[Cs]
+4.9 +4.2 95 +2 +3 1014.6 1000.5 +2.6 +6.2
15 16.08 СВ 2 20 км 9/0
[Cs]
+18.4 +8.2 51 +19 +27 1013.3 999.6
18 16.08 СВ 4 20 км 6/0
[Cs]
+22.7 +9.3 42 +24 +29 комфорт 1009.1 995.6
21 16.08 В 4 20 км 6/0
[Cs]
+23.0 +10.2 44 +25 +25 комфорт 1007.3 993.7
00 17.08 В 5 20 км 3/0
[Cs]
+17.5 +12.3 72 +17 +17 1009.1 995.4 +4.9 +23.2
03 17.08 ЮВ 5 20 км ясно +14.2 +11.4 83 +13 +13 1008.2 994.8
06 17.08 ЮВ 4 20 км ясно +13.2 +10.1 81 +12 +12 1004.7 991.4
09 17.08 Ю 2 20 км ясно +11.6 +10.1 91 +10 +10 1004.8 991.4
12 17.08 Ю 6 6000 м дымка 6/0
[Ac As Cs]
+12.7 +9.4 80 +10 +11 1008.6 995.2 +11.0 +17.5
15 17.08 Ю 11 20 км ясно +19.7 +8.8 49 +20 +20 1010.3 996.9
18 17.08 Ю 9 20 км ясно +21.3 +3.6 31 +21 +22 комфорт 1010.2 996.8
21 17.08 Ю 5 20 км 3/0
[Cs]
+18.5 +5.8 43 +18 +19 1011.8 998.2
00 18.08 Ю 2 20 км 4/0
[Ac As Cs]
+9.5 +5.8 78 +8 +8 1013.8 1000.1 +9.5 +21.5
03 18.08 ЮЗ 2 20 км 4/0
[Cs]
+7.4 +4.7 83 +6 +6 1016.2 1002.6
06 18.08 З 3 20 км 4/0
[Cs]
+5.2 +3.3 88 +2 +2 1017.7 1004.0
09 18.08 Ю 3 20 км ясно +2.5 +1.5 93 -2 -2 1019.7 1005.8
12 18.08 В 6 20 км 1/0
[Ac As]
+7.6 +5.4 86 +3 +4 1024.5 1010.5 +2.4 +9.5
15 18.08 ЮВ 8 20 км ясно +13.0 +5.4 60 +10 +12 1026.6 1012.6
18 18.08 ЮВ 5 20 км ясно +15.8 +6.5 54 +15 +19 1025.4 1011.4
21 18.08 ЮВ 5 20 км ясно +13.3 +5.0 57 +11 +12 1026.1 1012.1
00 19.08 ЮВ 4 20 км ясно +7.9 +3.2 72 +5 +5 1028.3 1014.1 +7.6 +15.8
03 19.08 ЮВ 3 20 км 8/0
[Ac As]
+6.5 +3.2 79 +4 +4 1029.9 1015.8
06 19.08 В 4 20 км 9/0
[Ac As Cs]
+7.0 +2.2 71 +4 +4 1029.6 1015.6
09 19.08 В 4 20 км 5/0
[Ac As]
+5.3 +2.1 80 +2 +2 1029.0 1014.9
12 19.08 В 3 20 км 5/0
[Ac As]
+4.8 +2.9 87 +1 +2 1030.1 1015.8 +3.0 +7.9
15 19.08 В 4 20 км 6/0
[Ac As Cs]
+11.2 +1.3 50 +9 +14 1029.8 1015.7
18 19.08 СВ 6 20 км 8/0
[Ac As Cs]
+12.2 +0.5 45 +10 +12 1026.6 1012.6
21 19.08 В 4 20 км 5/0
[Cs]
+10.4 +1.7 55 +8 +9 1026.6 1012.5
00 20.08 В 4 20 км 4/0
[Cs]
+6.4 +1.5 71 +3 +3 1027.9 1013.7 +4.8 +13.0
03 20.08 В 4 20 км 8/0
[Cs]
+5.1 +1.3 76 +1 +1 1029.1 1015.0
06 20.08 В 2 20 км 9/0
[Ac As]
+5.0 +0.9 75 +3 +3 1029.5 1015.4
09 20.08 В 4 20 км ясно +1.1 -0.9 86 -4 -4 1028.4 1014.2
12 20.08 В 3 20 км 4/0
[Ac As]
+3.7 +2.5 92 -0 +1 1028.8 1014.5 -0.6 +6.4
15 20.08 СВ 3 20 км 3/0
[Cs]
+12.1 +2.5 52 +11 +19 1030.1 1016.0
18 20.08 В 5 20 км ясно +14.4 +2.3 44 +13 +18 1028.2 1014.1
21 20.08 В 4 20 км ясно +11.5 +2.3 53 +10 +10 1028.2 1014.0
00 21.08 В 4 20 км 8/0
[Ac As Cs]
+8.4 +2.5 66 +5 +5 1028.7 1014.5 +3.7 +14.6
03 21.08 В 4 20 км 5/0
[Cs]
+6.4 +3.3 81 +3 +3 1028.9 1014.9
06 21.08 В 4 20 км ясно +3.8 +2.8 93 -1 -1 1028.3 1014.2
09 21.08 В 4 20 км ясно +3.7 +3.0 95 -1 -1 1027.7 1013.6
12 21.08 В 6 20 км 3/0
[Cs]
+5.1 +4.2 94 0 +1 1028.7 1014.5 +2.9 +8.4
15 21.08 СВ 6 20 км 5/0
[Ci sp]
+13.2 +4.9 57 +11 +15 1027.5 1013.6
18 21.08 СВ 9 20 км 4/0
[Ci sp]
+17.0 +3.9 42 +16 +17 1023.6 1009.7
21 21.08 В 8 20 км ясно +15.2 +4.1 47 +13 +14 1022.9 1008.9
00 22.08 В 5 20 км ясно +10.8 +5.6 70 +8 +8 1023.3 1009.3 +5.1 +17.2

 

Местоположение метеостанции Маркос Хуарес (Аргентина): широта -32.70 долгота -62.15 высота над уровнем моря 114 м.

В архиве по умолчанию представлена погода в Маркос Хуарес за последнюю неделю. Архивные данные за месяц целиком и за предыдущие месяцы, начиная с января 2011 года, Вы можете получить, выбрав интересующий диапазон дат из раскрывающегося списка и нажав кнопку "Ввод!".


*Определитесь, кто Вы:
робот инопланетянин человек

Внимание! Время в таблицах - всемирное. Для получения местного времени необходимо прибавить поправку, которая равна -3 ч.

Смотрите также архив погоды в соседних городах и на ближайших метеорологических станциях:

Погода в Росарио (Аргентина) (130 км)
Погода в Санта-Фе (Аргентина) (168 км)
Погода в Паране (Аргентина) (187 км)
Погода в Лабоулайе (Аргентина) (195 км)
Погода в Пиларе (Аргентина) (200 км)
Погода в Рио-Куарто (Аргентина) (203 км)
Погода в Хунине (Аргентина) (236 км)
Погода в Кордове (Аргентина) (248 км)
Погода в Вилла Долорес (Аргентина) (292 км)
Погода в Сересе (Аргентина) (314 км)

Пояснения к столбцам:

Ветер - указаны скорость ветра в м/с - средняя за 10 мин, порывы в срок и между сроками (в фигурных скобках) и направление, откуда дует ветер: С - северный, СВ - северо-восточный, В - восточный, ЮВ - юго-восточный, Ю - южный, ЮЗ - юго-западный, З - западный, СЗ - северо-западный.
Видимость - горизонтальная дальность видимости в метрах или километрах. При видимости от 1 до 10 км при отсутствии осадков обычно наблюдается дымка, при ухудшении видимости до 1 км и менее - туман. В сухую погоду видимость может ухудшаться дымом, пылью или мглою.
Явления - указаны атмосферные явления, наблюдавшиеся в срок или в последний час перед сроком; фигурными скобками обозначены явления, наблюдавшиеся между сроками (за 1-3 часа до срока); квадратными скобками обозначены град или гололедные отложения с указанием их диаметра в мм.
Облачность - указаны через наклонную черту общая и нижняя облачность в баллах и высота нижней границы облаков в метрах; квадратными скобками обозначены формы облаков: Ci - перистые, Cs - перисто-слоистые, Cc - перисто-кучевые, Ac - высококучевые, As - высокослоистые, Sc - слоисто-кучевые, Ns - слоисто-дождевые, Cu - кучевые, Cb - кучево-дождевые. Подробнее классификацию облаков см. в Атласе облаков (PDF).
T - Температура воздуха - температура, измеренная на высоте 2 м над землей.
Td - Температура точки росы - температура, при понижении до которой содержащийся в воздухе водяной пар достигнет насыщения.
f - Относительная влажность воздуха - влажноcть воздуха, измеренная на высоте 2 м над землей.
Te - Эффективная температура - температура, которую ощущает одетый по сезону человек в тени. Характеристика душности погоды. При расчете учитывается влияние влажности воздуха и скорости ветра на теплоощущения человека.
Tes - Эффективная температура на солнце - температура, которую ощущает человек, с поправкой на солнечный нагрев. Характеристика знойности погоды. Зависит от высоты солнца над горизонтом, облачности и скорости ветра. Ночью, в пасмурную погоду, а также при ветре 12 м/с и более поправка равна нулю.
P - Атмосферное давление - приведенное к уровню моря атмосферное давление.
Po - Атмосферное давление - измеренное на уровне метеостанции атмосферное давление.
Tmin - Минимальная температура - минимум температуры воздуха на высоте 2 м над землей.
Tmax - Максимальная температура - максимум температуры воздуха на высоте 2 м над землей.
R - Количество осадков - Количество выпавших осадков за период времени, мм. При наведении курсора мыши на число - период времени, за который выпало указанное количество осадков.
R24 - Количество осадков - Количество выпавших осадков за 24 часа, мм.
S - Снежный покров - Высота снежного покрова, см. При наведении курсора мыши на число - состояние снежного покрова и степень покрытия местности в баллах.